TimeCST,TemperatureF,Dew PointF,Humidity,Sea Level PressureIn,VisibilityMPH,Wind Direction,Wind SpeedMPH,Gust SpeedMPH,PrecipitationIn,Events,Conditions,WindDirDegrees,DateUTC
12:58 AM,30.2,23.4,76,30.58,10.0,North,2.3,-,N/A,,Overcast,360,2013-11-23 06:58:00
1:08 AM,30.2,23.0,75,30.55,10.0,North,2.3,-,N/A,,Overcast,360,2013-11-23 07:08:00
1:58 AM,30.2,23.7,77,30.59,10.0,North,2.3,-,N/A,,Overcast,360,2013-11-23 07:58:00
2:48 AM,30.2,23.0,75,30.55,10.0,Variable,2.3,-,N/A,,Overcast,0,2013-11-23 08:48:00
2:58 AM,30.2,22.3,72,30.58,10.0,North,3.5,-,N/A,,Overcast,10,2013-11-23 08:58:00
3:08 AM,32.0,21.2,64,30.55,10.0,North,3.5,-,N/A,,Overcast,360,2013-11-23 09:08:00
3:48 AM,32.0,21.2,64,30.56,10.0,North,3.5,-,N/A,,Overcast,360,2013-11-23 09:48:00
3:58 AM,30.6,22.1,71,30.59,10.0,North,3.5,-,N/A,,Overcast,360,2013-11-23 09:58:00
4:58 AM,30.4,22.6,73,30.61,10.0,North,3.5,-,N/A,,Overcast,360,2013-11-23 10:58:00
5:58 AM,30.7,24.6,78,30.61,10.0,North,4.6,-,N/A,,Overcast,360,2013-11-23 11:58:00
6:18 AM,32.0,23.0,69,30.58,10.0,North,4.6,-,N/A,,Overcast,360,2013-11-23 12:18:00
6:28 AM,32.0,24.8,75,30.58,10.0,North,3.5,-,N/A,,Overcast,360,2013-11-23 12:28:00
6:58 AM,31.8,24.1,73,30.63,10.0,North,4.6,-,N/A,,Overcast,10,2013-11-23 12:58:00
7:58 AM,31.5,22.8,70,30.65,10.0,North,8.1,-,N/A,,Overcast,10,2013-11-23 13:58:00
8:58 AM,32.0,22.6,68,30.66,10.0,NNE,12.7,-,N/A,,Overcast,20,2013-11-23 14:58:00
9:58 AM,32.5,22.3,66,30.68,10.0,NNE,8.1,-,N/A,,Overcast,20,2013-11-23 15:58:00
10:58 AM,32.7,21.0,62,30.69,10.0,NNE,13.8,-,N/A,,Overcast,20,2013-11-23 16:58:00
11:58 AM,32.9,21.2,62,30.69,10.0,North,16.1,-,N/A,,Overcast,10,2013-11-23 17:58:00
12:58 PM,34.0,21.7,61,30.63,10.0,NNE,16.1,-,N/A,,Overcast,20,2013-11-23 18:58:00
1:58 PM,34.5,22.5,61,30.65,10.0,NNE,13.8,-,N/A,,Overcast,20,2013-11-23 19:58:00
2:58 PM,35.4,24.1,63,30.63,10.0,NNE,10.4,-,N/A,,Overcast,30,2013-11-23 20:58:00
3:13 PM,35.6,24.8,65,30.59,10.0,NNE,9.2,-,N/A,,Overcast,20,2013-11-23 21:13:00
3:58 PM,35.8,25.9,67,30.64,10.0,NNE,9.2,-,N/A,,Overcast,20,2013-11-23 21:58:00
4:58 PM,35.6,25.7,67,30.64,10.0,North,10.4,-,N/A,,Overcast,10,2013-11-23 22:58:00
5:58 PM,35.6,25.7,67,30.64,10.0,NNE,15.0,-,N/A,,Mostly Cloudy,20,2013-11-23 23:58:00
6:58 PM,35.4,25.7,68,30.65,10.0,NNE,15.0,21.9,N/A,,Overcast,20,2013-11-24 00:58:00
7:20 PM,35.6,26.6,70,30.61,10.0,NNE,15.0,-,N/A,Rain,Light Rain,30,2013-11-24 01:20:00
7:34 PM,35.6,26.6,70,30.61,10.0,NNE,13.8,-,N/A,,Overcast,30,2013-11-24 01:34:00
7:52 PM,35.6,26.6,70,30.60,10.0,NNE,13.8,-,N/A,Rain,Light Rain,30,2013-11-24 01:52:00
7:58 PM,34.7,27.0,73,30.64,10.0,NNE,15.0,-,0.00,,Light Drizzle,30,2013-11-24 01:58:00
8:02 PM,35.6,26.6,70,30.60,10.0,NNE,16.1,-,N/A,,Overcast,30,2013-11-24 02:02:00
8:58 PM,34.5,27.1,74,30.64,10.0,NNE,16.1,-,0.00,,Overcast,30,2013-11-24 02:58:00
9:58 PM,34.0,25.9,72,30.65,10.0,NNE,16.1,-,N/A,,Overcast,20,2013-11-24 03:58:00
10:58 PM,33.3,23.7,68,30.64,10.0,NNE,16.1,23.0,N/A,,Overcast,30,2013-11-24 04:58:00
11:48 PM,32.0,23.0,69,30.62,10.0,NNE,16.1,24.2,N/A,Rain,Light Rain,30,2013-11-24 05:48:00
11:58 PM,32.7,22.6,66,30.66,10.0,NNE,16.1,-,0.00,Rain,Light Rain,20,2013-11-24 05:58:00